Regional Weather Roundup
Issued by NWS Huntsville, AL

Home | Current Version | Previous Version | Text Only | Print | Product List | Glossary On
Versions: 1 2 3 4 5 6 7 8 9 10 11 12 13 14 15 16 17 18 19 20 21 22 23 24 25 26 27 28 29 30 31 32 33 34 35 36 37 38 39 40 41 42 43 44 45 46 47 48 49 50
000
ASUS44 KHUN 162110
RWRHUN

WEATHER ROUNDUP FOR THE TENNESSEE VALLEY
NATIONAL WEATHER SERVICE HUNTSVILLE AL
400 PM CDT TUE SEP 16 2014

ALZ001>004-162200-
NORTHWEST ALABAMA

CITY           SKY/WX    TMP DP  RH WIND       PRES   REMARKS
COURTLAND HCN    N/A     84 N/A N/A W6          N/A
RUSSELLVILLE     N/A     82 N/A N/A MISG        N/A
SHOALS AIRPORT PTSUNNY   84  69  60 N9        30.02F
SHOALS TVA RES   N/A     86 N/A N/A MISG        N/A
$$

ALZ005>007-016-162200-
NORTH CENTRAL ALABAMA

CITY           SKY/WX    TMP DP  RH WIND       PRES   REMARKS
CULLMAN AG STN   N/A     86 N/A N/A NW8         N/A
DECATUR AP     MOSUNNY   86  66  51 N9        30.01F
HUNTSVILLE AP  MOSUNNY   87  66  49 N6        30.01F
MERIDIANVILLE  MOSUNNY   81  61  50 N9        30.02F
VINEMONT AP    FAIR      85  65  50 N9        30.04F
$$

ALZ008>010-162200-
NORTHEAST ALABAMA

CITY           SKY/WX    TMP DP  RH WIND       PRES   REMARKS
ALBERTVILLE    SUNNY     84  72  65 N7        30.01F
FORT PAYNE     MOSUNNY   81  63  54 N5        30.01F
SCOTTSBORO AP  CLOUDY    84  66  54 N7        30.01F
SCOTTSBORO HCN   N/A     82 N/A N/A MISG        N/A
VALLEY HEAD      N/A     81 N/A N/A MISG        N/A
$$

TNZ076-096-097-162200-
SOUTHEASTERN MIDDLE TENNESSEE

CITY           SKY/WX    TMP DP  RH WIND       PRES   REMARKS
FAYETTEVILLE   PTSUNNY   77  66  69 N7        30.05S
TULLAHOMA        N/A     73  64  73 NW8       30.07F
WINCHESTER     CLOUDY    77  68  73 N7        30.05F
$$

...SURROUNDING SITES...

CITY           SKY/WX    TMP DP  RH WIND       PRES   REMARKS
ATLANTA        PTSUNNY   85  67  54 VRB6      29.99F
ANNISTON       MOSUNNY   84  71  65 S3        30.00F
BIRMINGHAM     MOSUNNY   86  68  54 N8        30.02F
CHATTANOOGA    MOSUNNY   84  68  58 N5        30.01F
CORINTH        CLOUDY    79  68  69 N8        30.04F
DALTON         MOSUNNY   82  68  61 CALM      30.00F
GADSDEN        MOSUNNY   86  64  48 N6        29.99F
GOLDEN TRNGL   MOSUNNY   93  66  40 N7        30.00F HX  96
HALEYVILLE     FAIR      85  68  56 N6        30.04F
JACKSON TN     CLOUDY    76  62  62 N7        30.07F
LEWISBURG      CLOUDY    69  65  87 N9        30.07F
MEMPHIS        PTSUNNY   78  67  68 N6        30.07F
NASHVILLE      PTSUNNY   73  61  65 CALM      30.08F
OXFORD MS      FAIR      82  70  65 NW8       30.04F
ROME           MOSUNNY   87  67  51 CALM      29.98F HX  90
SAVANNAH       PTSUNNY   75  68  78 N10       30.06F
TUPELO         PTSUNNY   83  66  56 E10       30.01F
TUSCALOOSA     SUNNY     91  64  40 N12       29.98F HX  92
$$

...GULF COAST WEATHER...

CITY           SKY/WX    TMP DP  RH WIND       PRES   REMARKS
GULFPORT       CLOUDY    75  73  93 W5        29.96F
PASCAGOULA     LGT RAIN  81  78  91 CALM      29.97F
MOBILE         PTSUNNY   82  74  76 SW14      29.97F THUNDER
GULF SHORES    TSTM      73  71  92 SW5       29.97F
PENSACOLA      CLOUDY    77  76  96 SW8       29.97F
DESTIN         LGT RAIN  79  76  90 CALM      29.97F
PANAMA CITY    LGT RAIN  81  73  78 W10       29.98S
APPALACHICOLA  CLOUDY    83  73  72 W9        29.97F
$$




USA.gov is the U.S. government's official web portal to all federal, state and local government web resources and services.